Погода в Соалале

Мадагаскар     16°06′52″S   45°24′37″E
темп.,
°C
ветер,
м/с
пор.,
м/с
влажн.,
%
обл.,
%
осадки,
мм/ч
давл.,
гПа
погр.,
м
10 августа, ср
ср1000:00+18вюв24590 0.0 101969
03:00+18вюв410670 0.0 1018296
06:00+17вюв413750 0.0 1019417
09:00+25вюв68400 0.0 1020933
12:00+31вюв45220 0.0 10182079
15:00+34з05210 0.0 10142723
18:00+24з35490 0.0 101678
21:00+24в49500 0.0 1019450
11 августа, чт
чт1100:00+21вюв511500 0.0 1020870
03:00+19юв512520 0.0 1019706
06:00+14юв39740 0.0 1020192
09:00+25вюв710405 0.0 10201142
12:00+31вюв67280 0.0 10181872
15:00+33в25230 0.0 10152663
18:00+25ссз23511 0.0 101630
21:00+23юв37496 0.0 1019314
12 августа, пт
пт1200:00+20юв38600 0.0 1020314
03:00+20юв512580 0.0 1018757
06:00+20вюв513580 0.0 1019664
09:00+25вюв711410 0.0 10201195
12:00+31в57280 0.0 10171975
15:00+32всв36255 0.0 10142675
18:00+24сз345999 0.0 101556
21:00+25ююв3450100 0.0 1018114
13 августа, сб
сб1300:00+22вюв5115595 0.0 1018655
03:00+18вюв377257 0.0 1017145
06:00+16юв36795 0.0 1018119
09:00+26вюв594379 0.0 10191212
12:00+31всв3530100 0.0 10162230
15:00+30ссз553596 0.0 10131224
18:00+23сз346978 0.0 101470
21:00+21ююв2282100 0.0 101629
14 августа, вс
вс1400:00+21в23805 0.2 101764
03:00+19вюв37785 0.3 1015156
06:00+18в36800 0.0 1016131
09:00+26всв58475 0.0 1017979
12:00+30ссв653882 0.0 10151573
15:00+28ссз664722 0.0 1013705
18:00+23сз47725 0.0 1013259
21:00+22з36835 0.0 1015130